Location: Bjelajci
(45.0103°N, 16.1758°E)
Time: 08:36:45
(UTC+00:00)

Cosmos 1570 Rocket - Pass Details

Date: 14 July 2020
Orbit: 763 x 788 km, 74.1° (Epoch: 07 August)

Event Time Altitude Azimuth Distance (km) Brightness Sun altitude
Rises 02:36:46 0° 337° (NNW) 3,247 7.5 -7.3°
Reaches altitude 10° 02:39:09 10° 335° (NNW) 2,319 6.7 -7.0°
Maximum altitude 02:44:23 72° 252° (WSW) 813 4.0 -6.3°
Drops below altitude 10° 02:49:38 10° 169° (SSE) 2,319 6.2 -5.5°
Sets 02:52:01 0° 167° (SSE) 3,246 7.0 -5.2°
